sat.trackr.live / text

‹ back to catalog

UNKNOWN

NORAD 81438

UNKNOWN UNKNOWN UNKNOWN

§ Identity

Operator
Country
Launch date
Launch site
Launch vehicle
Mass (kg)
RCS (m²)

External: N2YO · Heavens-Above

§ Orbital elements

Epoch: 2026-09-12T10:50:12.073632Z

Period
106.19 min
Inclination
100.3441°
Eccentricity
0.0046548
Mean motion
13.56044631 rev/d
Perigee alt
1,015.5 km
Apogee alt
1,084.7 km
Semi-major
7,428.2 km
B*
3.0132e-3
RAAN
144.7450°
Arg perigee
114.2994°
Mean anomaly
246.3013°
Rev number
62,902

§ Raw data

UNKNOWN1 81438U          26255.45152863  .00002076  00000+0  30132-2 0  99932 81438 100.3441 144.7450 0046548 114.2994 246.3013 13.56044631629022

JSON: /api/v1/satellites/81438 · /tle

For live sub-satellite position, see the globe view (requires WebGL).

§ Visibility from observer

Set your observer location to see the next 7 days of passes ≥ 10°. The values pass through the URL so the page stays shareable.

No JS? Fill the form by hand. The geolocation button needs JavaScript.